This demonstration page uses our WeatherBlox Daily Observations layout. Learn more.

Left ArrowRight Arrow

Hourly Observations for July 6, 2021

Temp ( °F °C ) Dew Point ( °F °C ) Humidity (%) Winds ( mph kmh ) Pressure ( in mb ) Visibility ( mi km ) Precip ( " mm )
12:15 am 00:15 Clear 75 24.1 65 18.6 71 71 SE 7 11 29.92 1013 10 16 N/A
12:35 am 00:35 Clear 74 23.5 65 18.5 74 74 SSE 8 13 29.91 1013 10 16 N/A
12:55 am 00:55 Clear 73 22.8 65 18.5 77 77 SSE 8 13 29.92 1013 10 16 N/A
1:15 am 01:15 Clear 73 22.6 65 18.2 76 76 SSE 7 11 29.92 1013 10 16 N/A
1:35 am 01:35 Clear 72 22.3 65 18.2 78 78 SSE 7 11 29.92 1013 10 16 N/A
1:55 am 01:55 Clear 72 22.3 65 18.1 77 77 SSE 7 11 29.92 1013 10 16 N/A
2:15 am 02:15 Clear 71 21.7 65 18.1 80 80 SSE 7 11 29.93 1013 10 16 N/A
2:35 am 02:35 Clear 71 21.6 64 18 80 80 SE 5 7 29.93 1013 10 16 N/A
2:55 am 02:55 Clear 71 21.5 64 18 81 81 SSE 5 7 29.93 1014 10 16 N/A
3:15 am 03:15 Clear 71 21.7 64 17.7 78 78 S 6 9 29.93 1013 10 16 N/A
3:35 am 03:35 Clear 70 21.2 64 17.7 81 81 SSE 5 7 29.93 1014 10 16 N/A
3:55 am 03:55 Clear 70 21 64 17.7 82 82 SSE 6 9 29.93 1014 10 16 N/A
4:15 am 04:15 Clear 70 21.3 64 17.7 80 80 S 6 9 29.93 1014 10 16 N/A
4:35 am 04:35 Clear 70 21.1 64 17.7 81 81 S 8 13 29.93 1014 10 16 N/A
4:55 am 04:55 Clear 69 20.7 64 17.7 83 83 SSE 6 9 29.94 1014 10 16 N/A
5:15 am 05:15 Clear 69 20.5 64 17.7 84 84 SSE 6 9 29.94 1014 10 16 N/A
5:35 am 05:35 Clear 68 20.2 64 17.7 86 86 ESE 5 7 29.94 1014 10 16 N/A
5:55 am 05:55 Clear 69 20.3 64 17.7 85 85 SE 6 9 29.94 1014 10 16 N/A
6:15 am 06:15 Sunny 68 20.1 64 17.6 86 86 SE 5 7 29.94 1014 10 16 N/A
6:35 am 06:35 Sunny 69 20.5 64 17.9 85 85 SE 3 6 29.93 1013 10 16 N/A
6:55 am 06:55 Sunny 68 20.2 64 18 87 87 SE 5 7 29.94 1014 10 16 N/A
7:15 am 07:15 Sunny 70 21.1 65 18.1 83 83 SE 7 11 29.92 1013 10 16 N/A
7:35 am 07:35 Sunny 71 21.5 65 18.4 83 83 SSE 6 9 29.92 1013 10 16 N/A
7:55 am 07:55 Sunny 72 22.2 65 18.6 80 80 SSE 6 9 29.92 1013 10 16 N/A
8:15 am 08:15 Sunny 73 23 66 19 78 78 S 8 13 29.91 1013 10 16 N/A
8:35 am 08:35 Sunny 74 23.5 66 19 76 76 S 8 13 29.90 1013 10 16 N/A
8:55 am 08:55 Sunny 75 24.1 67 19.2 74 74 S 6 9 29.91 1013 10 16 N/A
9:15 am 09:15 Sunny 76 24.7 67 19.6 73 73 SSE 6 9 29.90 1013 10 16 N/A
9:35 am 09:35 Sunny 78 25.6 68 19.9 71 71 S 7 11 29.89 1012 10 16 N/A
9:55 am 09:55 Sunny 79 26.2 68 20.2 70 70 SSW 6 9 29.89 1012 10 16 N/A
10:15 am 10:15 Sunny 81 27.1 69 20.6 68 68 SSW 8 13 29.87 1012 10 16 N/A
10:35 am 10:35 Partly Cloudy 81 27.4 69 20.6 66 66 S 6 9 29.87 1012 10 16 N/A
10:55 am 10:55 Partly Cloudy 83 28.2 70 21 65 65 SSW 6 9 29.85 1011 10 16 N/A
11:15 am 11:15 Sunny 84 28.8 70 21.1 63 63 SSW 6 9 29.85 1011 10 16 N/A
11:35 am 11:35 Sunny 85 29.3 70 21.1 61 61 SW 8 13 29.84 1011 10 16 N/A
11:55 am 11:55 Sunny 86 30 70 21 59 59 S 10 17 29.83 1010 10 16 N/A
12:15 pm 12:15 Partly Cloudy 88 30.9 70 21.2 56 56 S 12 19 29.82 1010 10 16 N/A
12:35 pm 12:35 Partly Cloudy 86 30.1 69 20.8 57 57 SSW 9 15 29.83 1010 10 16 N/A
12:55 pm 12:55 Mostly Cloudy 75 23.8 64 17.6 68 68 NNW 32 52 29.88 1012 10 16 N/A
1:15 pm 13:15 Cloudy 69 20.5 67 19.4 93 93 WNW 31 50 29.95 1014 2 2 0.09 2.29
1:35 pm 13:35 Cloudy with Strong Thunderstorms 68 20 67 19.3 96 96 N N/A 29.90 1013 1 2 0.69 17.53
1:55 pm 13:55 Cloudy 69 20.4 67 19.5 95 95 ESE 9 15 29.93 1013 10 16 0.74 18.80
2:15 pm 14:15 Cloudy with Drizzle 69 20.3 67 19.3 94 94 N 7 11 29.95 1014 10 16 N/A
2:35 pm 14:35 Cloudy 69 20.6 67 19.2 92 92 ENE 7 11 29.97 1015 10 16 N/A
2:55 pm 14:55 Cloudy with Nearby Thunderstorms 70 21 67 19.5 91 91 SE 12 19 29.96 1015 10 16 N/A
3:15 pm 15:15 Mostly Cloudy 71 21.5 67 19.6 89 89 SE 7 11 29.95 1014 10 16 N/A
3:35 pm 15:35 Partly Cloudy 71 21.9 67 19.2 85 85 ESE 5 7 29.95 1014 10 16 N/A
3:55 pm 15:55 Partly Cloudy 73 22.7 67 19.3 81 81 N N/A 29.94 1014 10 16 N/A
4:15 pm 16:15 Mostly Cloudy 74 23.2 68 19.8 81 81 ENE 3 6 29.93 1014 10 16 N/A
4:35 pm 16:35 Cloudy 74 23.4 68 20.1 82 82 N N/A 29.92 1013 10 16 N/A
4:55 pm 16:55 Cloudy 75 23.8 69 20.5 82 82 N N/A 29.92 1013 10 16 N/A
5:15 pm 17:15 Cloudy 75 24 69 20.4 80 80 S 3 6 29.92 1013 10 16 N/A
5:35 pm 17:35 Mostly Cloudy 77 25.1 68 19.9 73 73 SSE 5 7 29.90 1012 10 16 N/A
5:55 pm 17:55 Cloudy 77 25.1 67 19.4 71 71 SSW 6 9 29.91 1013 10 16 N/A
6:15 pm 18:15 Cloudy 79 26.2 68 20.1 69 69 SSW 10 17 29.89 1012 10 16 N/A
6:35 pm 18:35 Mostly Cloudy 78 25.7 67 19.6 69 69 S 8 13 29.88 1012 10 16 N/A
6:55 pm 18:55 Partly Cloudy 77 25.1 69 20.3 75 75 S 7 11 29.89 1012 10 16 N/A
7:15 pm 19:15 Sunny 76 24.3 69 20.3 78 78 S 3 6 29.90 1012 10 16 N/A
7:35 pm 19:35 Sunny 76 24.4 69 20.4 78 78 SW 3 6 29.89 1012 10 16 N/A
7:55 pm 19:55 Partly Cloudy 77 24.8 68 19.9 74 74 SW 5 7 29.88 1012 10 16 N/A
8:15 pm 20:15 Sunny 76 24.5 68 19.8 75 75 W 3 6 29.89 1012 10 16 N/A
8:35 pm 20:35 Partly Cloudy 75 23.9 68 20 79 79 WSW 5 7 29.90 1012 10 16 N/A
9:15 pm 21:15 Cloudy with Rain 72 22.1 70 21 94 94 N 7 11 29.94 1014 7 11 0.01 0.25
9:35 pm 21:35 Cloudy 71 21.6 69 20.5 93 93 NNE 7 11 29.95 1014 10 16 0.01 0.25
9:55 pm 21:55 Mostly Cloudy with Drizzle 71 21.5 69 20.5 94 94 NNW 5 7 29.96 1015 10 16 0.01 0.25
10:15 pm 22:15 Clear 71 21.5 69 20.3 93 93 N 6 9 29.96 1015 10 16 N/A
10:35 pm 22:35 Clear 70 21 68 20 94 94 N 8 13 29.96 1015 10 16 N/A
11:15 pm 23:15 Clear 69 20.5 67 19.5 94 94 N 5 7 29.98 1015 10 16 N/A
11:35 pm 23:35 Clear 68 20.1 67 19.2 95 95 NNW 3 6 29.98 1015 7 11 N/A
11:55 pm 23:55 Partly Cloudy 68 20.1 66 19.1 94 94 NNE 3 6 29.99 1016 10 16 N/A

Powered by AerisWeather